星链-34124 (STARLINK-34124)

导读

STARLINK-34124是美国星链计划的卫星,于2025年5月23日发射升空,星链计划是由SpaceX推进的大规模低轨卫星互联网星座项目。该卫星作为星链星座组网的组成部分,将与其他卫星协同工作,为全球范围提供高速卫星互联网接入服务,进一步扩充星链星座的覆盖能力与服务容量,助力全球通信网络覆盖延伸。

基本信息
目录编号:
64109
目录名称:
STARLINK-34124
国际标识:
2025-110P
轨道中心:
EARTH
卫星名称:
星链-34124
卫星全名:
星链-34124 (STARLINK-34124)
卫星状态:
在轨 (已飞行387 天)
发射日期:
2025-05-23 UTC
国别 :
美国 (US)
星等 :
--
轨道信息
数据来源 国际轨道数据
星历时间: 2026-06-13T23:57:08+0800
10小时前
查看轨道信息
半长轴: 6848.831km
偏心率: 0.0001055
轨道倾角: 53.159°
近地点辐角 79.351°
升交点赤经 300.473°
平近点角 280.761°
近地点: 469.971km
远地点: 471.417km
周期: 94.012分钟
每日圈数: 15.317156
详细信息
固有亮度:
5
最大亮度:
2.5
卫星平台:
Starlink V1.0
覆盖范围:
全球
运营商:
太空探索技术公司
运营商所在国:
美国
制造商(研发单位):
太空探索技术公司
制造商所在国:
美国
使用方式:
暂无
卫星简介
Starlink 计划是 SpaceX 推出的全球卫星互联网项目,通过发射低轨道卫星,为全球尤其是偏远地区提供高速、低延迟的互联网服务。自 2019 年起,Starlink 已部署数千颗卫星,旨在缩小全球数字鸿沟,推动互联网普及。该项目还为军事、航空等行业提供通信支持,带来广泛经济效益。
2D轨道图
3D轨道图
轨道高度分析图
轨道倾角分析图
轨道综合分析图
查看轨道综合分析图